Location: Waco, TX
(31.5480°N, 97.1670°W)
Time: 22:13:44
(UTC-05:00)

ISS - Pass Details

Date: 24 May 2017
Orbit: 402 x 409 km, 51.6° (Epoch: 23 May)

Event Time Altitude Azimuth Distance (km) Brightness Sun altitude
Rises 20:56:36 0° 210° (SSW) 2,315 0.0 -6.9°
Reaches altitude 10° 20:58:44 10° 203° (SSW) 1,459 -1.1 -7.3°
Maximum altitude 21:01:51 42° 131° (SE) 594 -3.4 -7.9°
Drops below altitude 10° 21:04:58 10° 59° (ENE) 1,465 -1.3 -8.5°
Sets 21:07:07 0° 52° (NE) 2,327 -0.2 -8.8°
